Location: Star Hoppers Observatory
(42.7905°N, 83.6127°W)
Time: 02:00:37
(UTC-05:00)

NOSS 3-1 (A) - Visible Passes

Search period start: 06 February 2016 00:00
Search period end: 16 February 2016 00:00
Orbit: 861 x 1352 km, 63.4° (Epoch: 20 January)

Date Brightness Start Highest point End Pass type
(mag) Time Alt. Az. Time Alt. Az. Time Alt. Az.
06 Feb 5.2 07:03:20 10° S 07:08:42 38° ESE 07:14:33 10° NE visible
06 Feb 7.1 18:17:08 10° WNW 18:21:59 18° WSW 18:27:02 10° SW visible
07 Feb 6.0 06:19:56 10° SSE 06:24:23 23° ESE 06:29:08 10° ENE visible
08 Feb 6.4 05:37:49 10° SE 05:40:13 13° ESE 05:42:41 10° E visible
09 Feb 4.4 06:39:36 10° SSW 06:45:16 51° ESE 06:51:32 10° NE visible
10 Feb 5.3 05:55:47 10° S 06:00:52 31° ESE 06:06:22 10° NE visible
11 Feb 6.0 05:12:44 10° SSE 05:16:37 18° ESE 05:20:42 10° ENE visible
11 Feb 3.5 07:00:38 10° SW 07:06:34 77° NW 07:13:13 10° NE visible
12 Feb 3.8 06:16:03 10° SSW 06:21:54 69° ESE 06:28:25 10° NE visible
13 Feb 4.6 05:31:55 10° S 05:37:24 42° ESE 05:43:26 10° NE visible
14 Feb 5.3 04:48:20 10° SSE 04:53:04 25° ESE 04:58:07 10° ENE visible
14 Feb 3.6 06:37:28 10° SW 06:43:23 59° NW 06:49:58 10° NNE visible
15 Feb 5.9 04:05:47 10° SE 04:08:51 14° ESE 04:12:02 10° ENE visible
15 Feb 3.4 05:52:54 11° SW 05:58:36 90° N 06:05:13 10° NE visible
